Theta_e
329 329 328 327 327 328 326 326 329 330 330 330 329 321 316 315 316 317 317 316 315 315 315 315 315 317 319 320 322 324 325 326 326 325 324 323 323 323 323 322 323 323 324 324 324 324 325 326 326 325 326 328 329 329 329 329 328 327 327 328 328 328 328 327 327 325 322 323 325 325 324 324 323 319 318 319 318 317 318 317 316 316 316 316 317
328 328 329 329 328 329 329 328 329 327 326 328 328 321 316 316 316 316 316 315 315 316 316 316 318 320 322 323 325 326 326 326 325 324 324 324 325 325 324 325 325 326 325 325 325 325 326 326 324 322 322 323 324 325 326 326 326 326 326 327 327 326 326 326 327 326 325 324 326 326 325 324 322 318 318 319 318 318 318 317 316 316 316 316 317
328 329 329 330 330 329 331 332 331 327 323 323 323 319 316 316 316 316 316 316 315 316 318 319 321 323 324 325 327 327 326 325 325 324 324 324 324 324 325 325 325 325 325 325 325 326 326 325 322 321 321 321 321 321 322 322 323 323 323 324 324 323 324 326 326 327 326 326 325 325 324 322 320 318 319 319 318 318 319 318 316 316 316 316 316
330 329 330 330 331 332 332 332 332 330 326 323 320 319 317 315 315 317 316 315 316 317 319 320 323 325 325 326 327 326 325 323 322 323 323 323 324 324 325 324 324 323 324 325 325 325 323 322 322 322 322 323 323 322 323 322 322 321 321 322 322 322 323 324 325 326 327 326 323 321 322 321 320 319 319 318 317 318 319 318 317 316 316 316 316
335 330 329 330 331 334 333 333 334 331 328 328 323 318 317 315 316 319 318 316 316 317 318 320 324 326 326 326 327 326 325 323 322 322 322 323 325 325 325 323 322 323 325 325 323 322 322 323 324 324 324 324 324 324 324 324 324 323 323 323 323 324 325 324 324 325 326 326 321 318 319 320 319 319 318 317 318 319 319 319 317 316 316 316 316
341 332 330 329 330 333 333 335 335 330 333 337 330 320 318 317 318 321 320 317 316 318 319 321 324 325 325 326 326 327 326 325 323 323 322 323 325 326 324 322 322 324 324 323 321 322 323 324 325 325 325 325 325 325 326 326 325 325 324 324 324 325 325 324 324 324 325 325 322 319 318 318 318 318 317 318 319 319 320 319 317 316 316 317 317
347 339 334 330 329 332 332 334 336 338 345 346 333 321 319 319 320 320 318 317 317 318 319 321 323 324 324 325 326 326 325 324 323 321 321 322 325 325 323 321 323 324 323 322 322 323 324 325 326 326 326 326 326 326 326 326 326 326 326 325 324 323 323 323 323 323 324 323 321 319 318 318 318 318 318 318 319 319 320 320 318 317 316 317 317
351 347 342 337 332 330 332 338 343 345 347 342 329 321 321 320 320 319 318 317 317 319 320 321 323 324 324 325 326 325 323 322 321 320 320 322 324 323 321 321 322 322 322 322 323 324 325 326 327 326 326 326 326 327 327 327 327 327 326 326 324 322 321 322 322 322 323 322 321 319 319 319 319 319 318 318 319 319 320 320 319 318 317 317 317
354 353 351 346 340 336 339 345 347 347 344 336 326 322 322 322 321 321 321 320 318 319 321 322 324 324 324 325 326 323 321 320 320 320 320 322 322 321 321 321 321 321 322 323 324 325 326 327 327 326 326 326 326 325 325 324 324 325 325 325 324 322 321 321 321 322 322 323 321 320 320 320 319 319 319 319 320 320 321 320 320 319 319 319 318
355 355 354 353 350 346 344 343 345 347 344 336 328 324 323 325 323 320 321 322 320 321 322 323 325 324 324 325 324 321 320 320 321 320 321 322 322 322 322 323 322 323 323 324 325 325 326 326 326 326 326 325 324 322 321 320 320 321 323 324 323 322 321 322 322 322 323 323 322 321 321 321 320 319 320 320 320 321 321 321 321 321 320 320 319
356 356 356 355 352 349 346 344 345 347 345 340 332 326 325 325 322 321 324 323 321 322 323 323 323 322 323 324 322 320 320 321 321 321 322 323 324 324 324 324 325 325 325 325 325 326 326 326 326 326 326 325 322 320 318 318 319 320 322 323 323 322 321 321 322 322 322 323 322 322 322 322 321 320 320 321 321 321 322 322 322 322 321 321 320
357 356 356 355 353 351 349 347 347 345 345 344 337 329 325 323 321 324 329 329 325 323 323 323 322 322 322 321 320 319 319 321 323 324 323 324 325 326 327 327 327 327 326 327 327 326 326 326 326 326 326 325 323 320 318 318 319 320 321 322 322 321 321 321 322 322 322 323 323 323 323 322 322 321 321 321 322 322 322 322 322 322 321 320 320
357 356 355 354 354 352 350 349 348 344 342 342 337 329 325 322 322 325 326 326 327 325 323 322 322 321 321 320 319 319 320 321 324 325 325 326 327 329 329 330 330 330 329 329 328 327 327 326 326 326 325 325 323 320 319 319 319 319 320 321 321 321 321 321 322 323 323 323 324 323 322 322 322 322 321 322 323 323 323 322 322 321 321 320 319
356 356 355 354 354 352 351 349 347 342 338 335 331 327 322 321 325 324 319 320 325 325 322 322 321 320 320 320 320 321 322 323 325 327 328 329 330 331 331 332 332 332 332 330 328 328 327 326 325 325 325 325 322 319 319 319 319 319 319 319 319 320 321 322 323 324 324 324 323 323 322 322 322 322 321 322 323 322 323 323 322 321 320 320 319
356 356 355 354 354 352 351 348 343 340 337 334 330 326 322 323 324 322 319 320 321 321 321 321 321 320 320 321 321 323 324 325 327 328 330 332 333 333 332 331 330 331 332 331 328 327 326 325 325 325 325 324 321 319 319 319 318 317 317 316 316 317 319 321 324 324 324 324 323 323 322 321 321 321 321 321 321 322 322 322 321 320 320 318 317
354 355 354 354 354 352 350 348 345 341 338 334 331 326 324 325 324 322 322 321 319 320 322 322 322 321 321 322 323 324 325 327 328 330 331 333 333 331 330 330 331 331 332 330 328 326 325 325 325 325 324 323 321 320 320 319 318 317 315 314 315 316 318 321 323 324 324 323 323 322 322 321 321 321 321 321 321 321 321 320 319 318 317 317 317
352 354 353 353 353 352 351 349 348 345 339 334 332 329 327 325 324 323 323 322 320 321 322 322 324 324 322 323 324 325 326 327 329 331 331 332 331 330 329 330 331 331 329 327 326 325 325 325 325 324 323 322 321 321 320 319 318 316 315 314 315 317 319 320 322 322 322 322 321 321 321 320 320 320 321 321 321 320 319 319 318 317 316 316 317
349 351 352 352 352 351 350 349 348 346 342 336 331 329 328 325 323 322 323 322 321 323 324 328 331 330 325 324 325 326 327 328 329 330 330 331 330 329 329 330 331 329 327 326 325 325 325 325 325 324 323 322 321 321 319 318 317 315 314 315 317 318 319 320 320 320 321 321 321 320 320 320 321 321 321 320 319 318 318 319 318 316 316 317 317
347 349 350 350 349 348 348 348 346 344 342 337 332 329 329 327 324 323 323 323 324 327 330 334 336 335 331 329 328 327 327 327 328 329 329 330 329 328 330 330 329 328 326 326 326 325 325 325 324 323 322 321 320 319 319 318 316 314 315 317 319 319 320 320 320 320 320 320 320 320 320 321 321 321 320 319 318 317 318 319 318 316 316 317 318
345 348 348 348 347 346 346 346 345 342 339 334 332 331 330 327 325 323 324 326 329 330 333 336 338 338 337 335 334 333 332 332 331 330 330 330 328 328 330 329 327 326 325 325 325 325 324 324 323 322 321 320 320 319 319 317 314 313 316 319 319 320 320 320 320 320 320 320 320 320 321 321 320 320 319 318 317 316 317 318 318 317 317 318 318
344 347 348 346 345 345 345 344 344 341 336 333 331 330 328 325 325 327 330 332 333 333 334 337 338 338 337 336 334 334 335 334 332 330 329 328 328 328 329 327 326 325 324 323 323 323 323 323 322 321 320 320 320 319 317 313 312 314 317 319 320 320 320 320 320 320 320 320 320 320 320 319 319 319 317 316 316 315 315 317 318 318 318 318 318
344 345 346 345 344 344 343 343 343 339 336 332 330 328 326 325 327 330 332 334 335 335 337 338 337 334 333 332 333 334 334 332 330 329 328 327 328 328 326 324 323 322 321 321 322 322 322 321 321 320 320 320 320 317 313 311 312 316 318 319 319 319 319 319 319 319 319 319 319 319 319 318 318 317 316 315 314 312 312 315 317 319 319 318 318
344 344 344 344 344 343 342 342 341 339 334 329 327 326 325 326 328 330 331 333 334 335 336 336 335 333 332 333 334 334 332 330 329 328 326 326 325 324 321 320 320 319 319 320 321 321 321 320 320 321 320 320 318 314 310 310 313 316 318 318 318 318 318 318 318 318 318 318 318 318 318 317 317 315 314 313 312 311 310 313 317 319 319 317 317
343 343 343 343 342 342 341 341 339 336 330 326 326 326 325 327 328 330 331 332 332 333 333 334 333 334 335 334 333 331 330 329 328 326 324 323 321 319 318 318 318 318 318 319 320 320 320 320 321 321 320 319 316 311 309 311 314 317 318 318 318 317 318 317 317 316 316 317 317 317 317 316 314 313 312 311 311 310 310 312 316 319 319 317 316
344 343 342 342 341 341 340 339 336 331 326 327 328 328 329 331 331 331 331 330 330 331 331 332 333 335 334 332 330 329 329 328 326 323 321 319 317 317 318 318 318 318 319 319 319 319 320 321 321 320 319 317 312 309 310 314 316 317 318 317 317 317 317 316 316 315 315 315 315 316 315 314 312 311 310 311 310 310 309 311 315 318 319 317 316
343 342 341 340 340 339 338 338 335 329 327 330 333 333 334 334 333 331 329 328 330 330 329 331 334 335 332 330 329 329 328 326 323 321 318 317 317 317 318 318 318 318 319 319 319 320 320 320 320 319 317 313 310 311 314 316 317 317 316 316 316 316 315 315 314 314 314 314 314 314 313 311 310 310 310 311 310 309 308 308 313 318 319 317 315
342 341 340 340 338 337 337 336 335 333 332 332 332 331 331 331 330 329 328 328 328 327 327 332 334 331 328 328 329 328 326 323 321 319 317 317 317 317 318 318 318 318 318 318 319 319 319 319 319 316 313 310 311 314 316 316 316 316 315 315 315 315 314 313 313 313 312 312 312 310 309 309 309 309 310 310 308 307 306 307 312 318 318 316 315
341 340 339 338 337 337 336 335 335 335 332 330 328 328 328 326 325 325 326 324 321 323 328 332 330 327 327 327 327 325 323 321 319 318 317 317 317 317 317 318 317 317 318 318 319 319 319 318 316 312 310 312 314 316 316 316 315 315 314 314 314 313 313 312 312 311 310 309 308 308 307 308 308 308 308 307 305 305 305 307 312 319 318 315 315
340 338 338 337 336 336 335 335 335 332 328 326 328 328 326 324 324 324 324 322 321 324 329 330 327 326 326 325 324 323 322 320 319 318 318 318 318 318 318 317 317 317 318 318 319 319 318 315 312 310 311 314 316 316 315 314 314 313 313 313 313 312 312 310 309 308 307 307 307 306 306 307 306 305 305 304 304 305 305 306 313 319 318 315 315
336 335 335 334 333 332 333 333 332 329 325 325 328 327 324 323 324 323 321 321 324 327 328 327 326 326 326 324 323 322 321 320 319 318 318 318 318 318 318 317 318 318 318 319 319 318 316 313 310 310 312 314 314 314 313 312 312 312 312 312 311 310 309 308 307 306 306 306 306 306 305 304 303 302 302 302 303 304 304 307 315 320 319 316 315
332 332 332 330 330 330 330 329 329 326 325 326 326 325 324 324 323 321 321 324 327 327 326 326 326 325 325 324 323 322 321 321 320 318 318 318 318 318 318 317 318 318 318 318 318 316 313 311 310 311 312 312 312 312 311 311 311 311 310 309 308 307 306 306 306 306 307 307 306 304 302 301 301 301 301 301 302 303 303 308 316 320 319 317 316
329 329 329 328 328 328 328 327 327 326 325 325 325 324 325 324 321 320 322 326 327 326 327 326 325 324 324 323 322 322 321 321 320 318 318 318 318 318 317 316 317 317 317 317 315 313 311 310 311 311 311 311 311 311 311 311 310 309 309 308 307 307 306 306 307 307 306 305 303 301 300 300 299 299 299 300 302 302 304 310 316 319 320 319 316
328 327 326 326 325 326 326 326 325 325 325 325 325 325 326 324 321 320 323 326 327 327 326 325 325 325 324 322 322 322 321 321 319 318 318 318 317 316 314 314 314 313 313 312 311 310 311 311 312 312 310 310 310 310 310 310 309 309 309 308 308 307 306 307 306 305 304 302 300 299 299 298 297 298 299 301 302 302 305 312 317 319 320 320 318
328 326 326 327 325 324 324 325 324 325 325 324 324 324 324 323 321 321 324 327 328 327 326 325 325 324 323 322 322 322 321 320 319 318 317 316 315 312 310 310 309 309 309 309 309 310 311 313 312 311 310 309 310 310 309 309 309 309 309 307 307 306 306 305 304 302 300 299 298 297 296 296 297 299 299 300 302 302 305 311 317 318 319 320 318
329 329 329 328 324 321 320 321 321 321 321 321 320 320 320 321 323 324 326 327 326 326 325 324 324 323 323 322 323 322 320 319 318 317 316 315 312 310 310 310 310 310 310 310 310 311 312 313 312 310 309 309 309 309 309 309 309 308 307 306 306 305 304 302 300 299 298 297 296 295 295 296 297 299 298 299 302 304 305 310 316 317 318 320 319
330 328 325 323 320 318 319 321 321 322 322 321 321 321 322 324 325 326 326 325 324 324 324 323 323 323 323 323 322 321 320 318 316 315 315 314 312 312 312 312 311 311 311 310 311 311 312 311 310 309 309 309 309 309 308 308 307 306 305 305 304 302 300 298 297 297 296 296 295 295 295 296 297 297 297 298 302 304 305 309 315 317 318 319 320
326 323 321 320 320 321 323 325 326 327 327 327 327 327 327 327 327 327 326 324 324 324 323 323 323 323 323 322 322 321 319 317 315 314 314 313 313 312 312 312 311 311 311 310 310 310 310 309 308 308 308 308 308 308 307 305 305 304 304 302 300 298 297 296 296 295 295 295 295 295 295 296 296 297 296 297 300 303 305 308 313 317 318 319 320
321 320 320 320 320 321 322 325 327 328 328 328 329 329 329 329 327 326 325 324 324 323 323 323 323 323 323 322 321 319 318 316 315 314 314 314 313 313 312 311 311 310 311 310 309 308 308 307 307 307 308 307 307 306 305 304 304 303 300 298 297 296 295 295 295 295 295 295 295 295 295 295 295 296 296 297 298 301 304 307 312 316 317 318 319
320 320 319 319 319 319 319 321 324 326 327 328 328 328 328 327 327 326 325 325 324 323 323 323 323 323 323 322 320 318 317 316 315 315 315 314 314 313 312 311 310 310 311 310 308 308 307 307 307 307 307 306 305 304 304 305 303 299 296 295 295 295 295 295 295 295 295 295 295 295 295 295 295 295 296 296 297 299 302 306 310 314 317 318 319
320 320 320 320 320 319 319 320 322 325 327 327 327 327 327 326 326 326 325 325 324 324 323 323 323 323 322 321 319 317 317 316 315 315 315 315 314 313 312 310 310 310 310 310 308 307 307 307 306 306 306 305 304 304 304 302 299 295 294 295 295 294 295 295 295 295 295 295 295 295 295 295 295 295 295 296 296 297 299 304 308 313 315 317 318
322 322 322 322 322 322 322 324 325 327 327 326 326 326 326 325 325 325 324 324 324 323 323 323 323 322 321 319 318 317 317 316 316 315 315 315 314 313 311 309 309 310 310 309 308 307 307 306 305 305 304 302 302 302 301 298 295 294 294 295 295 295 295 295 295 295 294 294 295 295 295 295 295 295 295 295 296 296 297 301 306 311 314 316 317
325 325 325 325 325 324 325 326 327 327 326 325 325 323 323 323 323 323 323 323 323 322 322 322 322 321 319 318 318 317 317 316 316 315 315 315 314 312 310 308 308 308 308 308 308 307 305 304 304 303 301 300 299 298 296 294 293 294 294 294 295 295 295 294 295 294 294 295 295 295 295 295 295 295 295 295 295 296 296 298 303 308 312 315 316
328 328 328 327 327 327 327 327 326 325 324 324 322 321 321 322 322 322 322 322 321 321 321 320 320 319 318 318 317 317 316 316 316 315 315 314 313 311 308 307 307 307 307 307 307 305 304 303 302 301 299 297 296 295 294 293 293 294 294 294 295 294 294 294 294 294 294 295 295 295 295 295 295 295 295 295 295 295 296 297 299 305 309 312 315
328 328 328 328 328 327 326 325 324 323 323 322 321 320 321 321 321 320 321 322 321 320 320 319 319 318 318 317 317 316 316 316 316 315 315 314 312 309 307 306 306 307 307 307 305 304 302 302 302 300 297 294 293 293 293 293 294 294 294 294 294 294 294 294 294 294 294 295 295 295 295 295 295 295 295 295 294 295 295 296 298 301 305 309 312
326 327 327 326 326 325 324 323 322 322 321 320 320 320 320 320 319 320 321 321 320 320 319 319 318 318 317 317 316 316 316 315 315 315 314 312 310 307 305 304 305 306 306 306 305 303 302 302 300 298 295 293 293 293 293 293 294 294 294 294 294 294 294 294 294 294 294 295 295 295 295 295 295 295 295 295 294 294 295 296 297 299 302 305 309
324 324 324 323 322 322 321 320 320 320 319 319 318 318 318 318 318 319 319 320 320 319 319 319 318 318 317 317 316 316 316 315 314 314 312 310 307 306 304 304 304 305 306 305 305 303 302 301 300 298 294 293 293 293 293 293 293 293 294 294 294 294 294 294 294 294 294 294 295 295 295 295 295 295 295 294 294 294 295 295 296 297 299 302 305
322 322 321 320 319 318 318 318 318 318 317 316 315 315 315 315 316 317 318 318 319 318 318 318 317 317 317 317 317 316 316 315 314 313 311 308 306 305 304 303 303 305 305 305 304 303 302 301 301 299 295 293 293 293 293 293 293 293 294 294 293 293 294 294 293 294 294 294 294 294 295 295 295 295 295 294 294 294 294 294 295 296 297 299 302
319 319 318 317 316 316 316 316 316 316 315 314 313 313 313 314 314 314 315 315 315 316 316 316 316 316 316 316 316 315 314 314 313 311 309 306 305 305 304 303 303 304 305 304 303 302 302 302 301 299 296 294 294 294 294 294 294 294 294 294 294 294 293 293 293 293 293 293 294 294 294 294 295 295 294 294 294 294 294 294 295 296 296 297 300
317 316 315 314 315 316 316 316 316 315 314 314 313 313 313 313 313 313 313 313 313 314 314 315 315 315 315 315 315 314 313 313 311 309 307 306 306 305 304 303 303 304 304 303 302 302 302 302 300 298 296 295 295 295 295 295 295 295 295 295 295 295 294 294 293 293 293 293 293 293 293 294 294 294 294 294 294 294 294 294 294 295 296 296 297
312 312 311 311 313 314 314 315 315 315 314 314 313 313 313 313 313 313 313 313 313 313 313 314 315 315 315 315 315 314 313 312 311 309 307 306 306 305 304 303 303 303 303 303 302 302 302 301 300 298 296 296 296 296 296 296 296 296 296 295 295 295 295 295 293 292 292 292 293 293 293 294 294 294 294 294 293 293 293 294 294 295 295 296 296
308 308 309 309 309 310 310 311 312 312 313 313 313 313 312 312 312 313 313 314 314 314 313 313 313 314 314 314 314 314 313 313 312 310 308 307 306 305 304 303 303 303 303 303 303 302 302 301 299 297 296 296 297 297 297 296 296 296 296 296 296 296 295 294 293 292 292 292 292 292 292 293 294 294 294 294 293 293 293 293 293 294 294 295 295
Wind_Speed
47 47 46 44 42 40 37 35 31 29 27 25 24 24 26 27 26 23 22 21 21 20 19 18 18 18 17 15 12 11 11 12 12 12 12 12 11 11 10 10 12 12 13 14 14 14 15 16 16 16 16 17 17 17 18 17 18 18 18 19 19 20 22 24 28 32 33 31 31 29 27 27 27 25 27 28 26 26 26 27 30 33 35 37 38
50 50 49 48 46 44 41 37 34 32 29 27 25 26 28 28 25 23 22 22 20 19 19 18 19 18 16 14 12 12 12 12 12 13 12 12 11 10 10 11 12 14 14 14 14 14 15 16 15 14 15 16 16 17 18 18 19 20 19 19 20 20 21 24 27 32 34 33 32 31 28 27 27 26 26 29 28 27 28 29 31 34 37 39 40
52 52 51 51 49 46 43 40 37 34 32 31 29 28 29 27 24 23 23 21 20 19 19 19 19 18 16 14 13 13 13 13 13 13 12 11 10 9 10 12 14 14 14 14 13 13 13 14 13 13 14 16 16 16 17 18 19 20 20 20 20 20 21 23 26 30 34 34 32 32 29 27 28 28 28 29 30 29 29 30 32 35 38 39 40
53 54 54 53 51 49 46 43 40 37 35 34 31 29 30 27 24 22 22 21 21 20 20 20 20 18 16 15 14 13 13 13 13 13 12 10 10 10 10 12 13 13 13 13 12 11 12 13 13 14 15 17 17 17 16 17 18 19 20 19 20 21 21 23 25 26 30 31 31 31 30 29 30 30 30 31 30 30 30 32 34 36 38 39 40
54 55 56 55 53 51 49 46 44 40 38 36 33 31 30 27 23 20 22 23 22 21 22 22 20 19 17 16 15 14 13 13 13 12 11 10 10 10 10 11 12 13 13 12 11 10 12 14 15 16 17 18 19 19 19 18 18 19 20 20 21 23 23 24 25 25 26 29 31 31 32 32 32 32 31 31 32 32 32 32 34 37 38 39 42
54 55 56 57 56 54 52 51 47 42 39 36 32 30 28 26 23 20 22 24 24 23 24 23 21 20 18 17 15 14 14 13 13 12 12 11 11 10 10 12 13 14 13 12 11 12 13 15 17 18 19 19 20 20 21 21 21 21 22 22 23 24 25 26 26 26 26 28 30 32 33 33 34 34 32 31 33 35 35 35 36 37 39 42 44
53 55 56 57 58 58 56 54 49 43 39 33 28 27 27 26 24 21 22 24 25 24 24 23 21 20 18 17 15 14 14 14 14 14 13 12 11 11 11 13 14 15 14 13 13 14 16 17 19 19 20 21 21 21 22 23 23 24 25 24 24 25 27 27 26 27 27 28 29 31 33 34 35 36 33 32 34 35 35 37 40 40 41 44 47
53 55 56 57 59 60 59 55 49 44 40 34 30 30 30 26 23 22 24 26 26 25 25 23 21 20 18 17 15 14 15 15 15 15 14 13 11 11 12 14 16 16 16 15 16 17 18 19 20 21 21 21 22 23 24 24 25 26 27 25 24 25 26 27 28 28 28 28 29 30 32 35 36 36 35 34 35 35 34 37 43 44 45 47 49
53 54 55 57 58 59 55 49 47 47 44 38 35 36 33 26 23 23 25 26 26 26 25 23 22 21 19 17 16 16 16 16 15 15 14 13 11 11 12 14 16 17 17 18 18 19 20 21 22 22 23 23 23 25 25 26 26 27 27 26 25 25 25 27 28 28 28 29 29 30 32 35 36 36 37 36 36 37 36 38 43 46 48 51 52
51 51 53 54 54 51 43 37 41 48 48 44 41 39 34 27 24 25 26 26 27 27 25 24 23 22 20 18 17 17 17 16 14 14 14 12 12 12 13 15 16 18 19 19 20 21 22 24 25 25 25 25 24 24 25 25 25 26 26 25 25 25 25 26 27 28 28 29 29 30 32 35 37 37 38 38 37 37 38 40 44 48 50 54 56
48 49 51 51 49 47 44 42 46 52 53 50 47 42 36 29 25 26 26 26 27 27 26 26 25 23 21 20 19 20 19 16 15 14 14 13 13 14 15 17 18 20 20 20 21 22 23 25 26 27 27 26 24 22 23 24 24 24 24 25 25 26 26 27 27 26 26 28 29 30 33 36 37 37 38 38 38 38 39 41 44 48 50 53 57
45 47 47 46 46 48 51 52 53 55 55 53 49 43 38 33 29 27 27 27 27 28 28 28 26 23 22 21 21 21 20 17 16 15 15 15 15 17 18 20 21 22 23 23 23 24 25 27 27 28 27 26 24 22 22 22 23 23 24 25 26 27 28 29 29 27 26 28 30 31 33 35 36 37 37 37 37 38 41 42 45 48 50 52 56
43 43 43 43 45 49 51 52 54 54 52 52 50 43 38 36 33 30 30 28 27 28 29 28 26 23 22 22 22 21 20 18 17 16 15 15 16 18 21 22 24 25 25 26 25 26 27 28 29 28 27 25 24 22 22 22 23 24 25 26 27 28 29 30 29 27 27 27 29 31 32 33 34 35 36 36 35 37 41 45 45 47 51 53 55
39 40 40 41 44 46 48 49 48 44 44 47 45 39 36 36 33 31 31 29 28 29 30 29 26 24 23 22 21 20 19 18 17 16 15 16 18 21 23 25 26 27 28 28 26 26 27 28 29 29 26 25 23 22 22 23 24 24 25 26 28 28 29 30 29 28 28 28 30 32 33 33 33 34 35 36 36 38 43 46 46 48 52 53 52
36 37 39 40 42 44 43 41 37 35 40 43 39 37 39 39 33 30 29 28 27 29 30 28 25 23 23 22 21 20 19 17 17 16 17 19 21 23 25 26 26 28 29 27 24 24 26 28 29 29 27 25 22 22 23 24 24 25 26 27 28 29 29 30 29 29 29 30 32 33 33 35 35 34 35 37 38 40 43 44 44 45 47 48 49
33 35 37 39 41 41 40 40 38 37 39 41 42 44 46 41 34 30 28 27 28 29 30 29 26 23 22 22 22 21 20 18 18 18 19 21 22 23 24 25 25 25 26 23 22 23 26 27 28 28 26 24 23 23 25 25 25 26 27 28 28 28 29 29 29 29 31 33 33 33 33 34 34 33 33 34 35 36 38 39 40 40 42 45 49
27 30 33 36 38 39 39 41 42 41 39 42 47 49 44 36 32 30 28 27 27 28 29 28 26 24 22 23 24 23 22 20 20 21 22 22 23 23 24 24 23 22 21 20 21 24 26 27 28 27 25 24 24 25 25 24 25 26 27 27 27 28 28 29 29 29 31 31 31 32 32 31 30 28 27 27 28 30 33 37 37 36 39 44 47
22 26 29 33 35 36 38 39 41 40 40 46 51 45 34 27 28 28 28 26 25 26 30 30 29 27 24 24 24 24 23 23 23 24 24 24 24 24 24 23 22 21 20 21 23 25 26 27 28 26 25 25 25 25 24 24 25 26 27 27 27 27 27 27 28 28 29 29 28 29 29 27 25 24 23 24 27 28 30 33 33 34 38 43 45
20 23 26 29 30 32 33 34 35 37 41 48 50 41 30 26 28 29 29 29 28 31 34 32 31 29 27 27 28 27 27 27 26 26 27 28 26 24 22 21 21 20 21 22 24 26 27 28 27 26 26 25 24 24 24 25 25 25 25 25 26 27 26 26 26 27 28 29 28 27 25 22 21 22 24 26 28 28 28 29 30 32 38 44 46
18 20 24 25 26 28 29 30 32 35 37 34 32 32 30 29 30 30 31 32 32 33 34 33 32 30 28 28 28 29 30 28 26 27 28 28 26 23 21 20 20 21 23 24 25 26 27 27 27 26 25 23 23 23 24 25 24 24 24 24 25 26 25 25 26 27 28 29 27 24 22 20 21 23 26 28 28 28 28 27 28 32 37 44 47
16 19 21 21 23 25 27 29 32 33 27 18 19 27 32 32 32 30 31 30 30 31 31 30 30 30 31 30 29 30 31 28 26 25 25 24 22 21 20 20 22 24 24 25 25 26 26 26 25 24 23 22 23 24 24 24 23 22 23 23 24 24 25 26 27 27 26 25 23 21 21 22 23 25 27 28 28 28 29 28 28 32 36 40 45
15 16 18 18 19 22 25 28 30 28 21 16 20 29 33 33 31 28 27 26 28 29 29 27 26 27 31 32 31 30 30 26 22 20 19 18 18 18 20 22 23 24 24 24 25 25 24 23 22 22 22 22 23 23 23 22 21 21 22 22 23 24 25 26 26 24 23 22 22 23 23 24 26 26 26 27 27 29 31 30 29 31 34 36 39
12 13 14 14 15 18 22 26 27 24 19 19 24 30 31 28 24 22 22 24 25 24 24 25 25 27 30 30 27 27 25 19 16 15 14 15 16 18 20 22 22 22 22 23 23 22 21 20 20 21 21 22 23 22 21 21 20 20 20 22 23 24 23 23 22 22 21 22 24 24 24 25 26 26 26 26 28 30 32 32 30 30 33 35 38
9 9 10 11 12 15 18 21 23 23 21 21 23 24 23 21 18 18 19 20 21 21 24 24 24 27 30 26 21 20 19 15 13 13 13 14 16 18 19 20 19 20 20 20 20 19 19 19 19 20 21 22 22 21 20 19 19 19 20 22 22 22 21 20 21 21 23 24 26 26 25 25 25 25 26 28 30 32 34 33 31 31 32 34 38
6 6 8 9 10 14 17 19 21 23 22 18 15 14 14 15 14 14 13 12 15 18 21 23 25 27 26 21 15 13 14 14 13 12 12 14 15 17 17 18 18 18 18 18 17 18 18 18 19 20 20 21 20 19 18 18 18 20 21 22 21 20 20 21 22 24 25 27 28 28 26 24 24 24 26 29 31 33 34 34 32 31 32 35 38
5 6 8 10 13 16 17 19 22 24 21 15 11 11 11 11 11 11 9 9 10 13 15 21 26 25 22 17 13 12 13 12 11 11 13 14 15 16 16 16 16 16 16 16 16 16 17 17 18 19 19 19 18 17 17 17 18 20 21 20 20 19 21 23 25 26 27 27 26 26 25 24 24 25 27 31 32 32 33 35 34 32 33 36 39
6 7 9 13 16 17 17 18 22 23 19 14 11 12 12 12 11 9 8 9 11 14 17 22 22 20 17 15 13 12 12 11 11 12 13 14 15 15 16 15 15 15 15 15 15 16 16 17 18 18 17 16 16 15 16 17 18 19 20 20 20 21 23 25 25 25 25 24 24 24 23 24 25 27 30 32 33 31 31 33 34 33 33 36 39
7 8 11 14 15 15 17 20 21 19 16 16 17 17 16 15 12 8 8 13 15 16 19 20 18 16 15 14 13 13 12 12 11 12 13 14 14 15 15 15 15 15 14 14 14 15 16 17 16 16 15 14 14 14 16 17 18 18 19 19 20 21 23 23 23 22 22 22 23 24 24 26 28 30 32 33 32 29 29 31 32 30 30 34 37
9 10 12 13 13 15 18 20 20 19 20 22 21 19 19 16 12 12 14 16 15 15 17 18 15 13 13 13 13 13 12 11 11 12 14 14 14 15 15 15 15 14 13 13 14 15 15 15 14 14 13 13 13 15 16 16 17 17 18 19 20 21 21 21 21 20 20 21 23 25 27 29 30 31 32 32 29 26 27 29 29 28 28 32 35
8 10 11 11 11 13 17 20 22 24 25 21 18 19 20 17 12 12 13 12 11 14 18 17 13 13 14 15 15 14 12 11 12 13 14 15 14 14 14 14 14 13 13 13 14 14 13 13 13 13 13 14 15 15 16 16 16 15 16 17 18 19 20 19 19 20 21 22 24 27 28 30 30 30 29 28 26 25 25 26 26 25 25 29 33
7 8 9 10 10 12 15 20 24 25 23 19 18 19 18 13 11 10 10 10 13 17 19 18 15 15 16 16 15 13 12 12 12 14 15 14 14 13 13 13 13 13 12 13 13 13 12 12 12 13 14 15 15 16 15 14 14 14 14 15 17 18 18 19 20 21 23 24 26 27 27 27 27 27 26 26 26 25 24 24 24 23 23 25 30
5 8 10 11 13 13 15 18 21 22 21 19 18 18 16 13 11 11 11 12 15 18 19 19 17 16 16 16 15 14 12 12 13 14 15 14 13 12 12 12 13 13 12 12 12 12 12 12 12 13 14 14 15 14 14 13 13 14 15 16 17 18 19 20 22 24 25 25 25 24 24 23 24 24 24 25 25 25 23 22 23 23 23 23 26
4 8 10 12 13 15 16 18 18 19 18 17 17 18 18 16 14 12 13 15 18 20 19 18 17 16 16 16 15 13 12 12 13 14 14 13 12 12 12 12 12 12 12 12 12 13 12 12 12 13 13 13 13 13 12 12 13 15 17 17 18 19 20 22 24 25 24 22 21 21 21 21 22 23 23 23 23 22 22 22 22 22 23 23 24
5 7 7 8 10 12 15 17 17 16 15 15 15 16 17 16 14 14 16 17 19 18 17 17 17 17 17 16 14 12 11 11 12 13 13 11 10 10 10 10 11 11 12 13 13 13 12 12 13 13 13 12 12 12 13 13 15 17 17 17 17 19 21 23 23 21 19 18 17 18 19 20 21 22 22 23 22 21 21 21 21 21 22 22 22
8 10 10 10 8 8 10 11 11 11 11 11 11 12 13 13 13 15 17 16 15 15 15 16 16 16 16 15 13 11 10 9 11 12 11 9 9 8 9 10 11 12 13 13 13 13 13 13 13 12 12 11 11 12 14 15 16 17 16 16 18 20 21 21 19 16 15 15 15 16 18 19 20 21 22 22 22 22 22 22 21 20 20 20 21
11 12 11 10 8 6 6 8 9 10 10 11 11 12 12 12 13 14 14 13 13 14 15 15 15 15 14 13 11 10 9 9 9 9 7 7 7 8 9 10 12 12 12 12 12 13 13 13 12 12 12 11 12 13 14 15 15 15 16 18 19 19 18 16 14 13 13 13 14 16 17 18 19 20 21 22 22 23 23 23 21 20 19 19 18
11 10 9 8 7 6 7 8 9 10 11 11 11 12 13 12 12 13 14 13 14 14 14 14 14 14 13 12 11 9 8 8 7 5 4 4 5 6 8 9 10 10 10 11 11 11 11 11 11 11 11 12 13 14 13 13 14 16 17 18 17 15 13 12 12 12 12 12 14 16 17 18 19 20 21 22 23 23 24 23 22 20 19 18 17
11 9 8 7 7 7 7 8 8 8 9 9 10 11 11 11 11 13 14 14 13 14 15 15 15 14 13 12 10 8 7 6 5 4 5 5 5 6 8 9 9 9 9 10 10 9 9 10 10 11 11 12 13 12 12 13 15 16 15 14 12 11 11 11 11 11 12 12 14 15 16 17 18 19 20 21 22 24 24 23 23 21 19 17 17
9 9 9 9 9 9 9 9 9 8 8 8 8 8 9 11 13 15 16 16 17 18 18 17 15 13 12 11 9 8 7 6 5 5 6 7 7 8 9 9 9 10 10 10 9 9 9 10 10 10 10 11 11 11 12 13 14 13 11 10 9 9 9 9 10 11 12 13 14 14 15 16 17 18 19 20 21 23 24 23 23 22 20 17 16
10 9 10 9 9 10 10 10 9 8 7 7 7 7 9 12 14 17 18 19 19 19 18 17 14 12 12 11 9 8 7 6 6 6 8 9 10 11 11 10 10 10 10 10 10 10 10 10 10 9 9 10 10 11 12 12 11 9 8 7 7 8 8 9 10 11 12 13 13 14 15 16 17 17 18 19 20 22 23 22 22 21 20 18 17
11 10 10 9 9 9 9 9 8 8 7 7 8 9 11 14 16 17 17 16 16 16 17 16 13 11 11 11 9 8 8 8 7 7 8 10 11 12 12 11 10 10 10 11 10 11 11 10 9 8 8 9 10 10 10 9 7 6 6 6 7 7 8 9 10 11 12 12 13 13 14 16 17 17 18 18 19 20 21 21 21 20 20 20 19
11 11 10 9 9 9 9 9 8 8 8 9 10 12 14 17 18 18 17 15 15 16 16 14 11 10 10 10 9 9 9 9 8 9 9 10 11 13 12 11 10 10 10 10 10 10 10 8 7 7 7 8 8 8 6 5 4 4 5 6 6 7 8 9 10 11 11 12 12 13 14 15 16 17 17 17 19 19 20 20 20 20 19 19 19
11 12 11 10 10 11 10 10 9 9 10 11 13 15 16 16 16 16 15 14 13 13 13 12 10 10 9 9 9 9 9 9 9 10 10 10 12 13 12 10 8 8 9 9 9 9 7 6 5 6 7 7 6 5 4 3 3 4 4 5 6 7 8 8 9 10 11 11 12 12 13 14 15 16 16 17 18 19 19 19 19 19 19 18 18
11 11 11 11 11 11 10 10 10 11 12 13 15 15 14 13 12 12 12 12 11 10 11 11 11 9 9 10 11 10 9 9 9 11 11 11 12 13 11 9 8 8 8 8 8 7 5 4 5 7 6 5 4 3 2 2 3 3 4 5 6 6 7 8 9 9 10 11 12 12 13 14 15 16 16 18 18 18 19 19 19 18 18 18 18
9 9 9 9 9 8 8 9 11 12 13 13 12 10 8 8 9 9 10 10 10 10 11 12 12 11 10 10 10 10 10 10 10 10 10 10 11 12 11 9 8 8 8 8 7 6 5 5 6 6 5 3 2 2 2 2 3 4 4 5 5 6 7 8 8 9 10 11 11 12 12 13 15 16 17 18 18 18 18 18 19 18 18 17 17
8 7 7 7 7 8 9 11 12 11 9 8 7 6 5 6 8 9 9 9 9 10 10 11 11 11 10 10 10 10 10 10 10 9 9 10 10 10 10 9 9 9 9 9 8 7 6 5 5 5 4 3 2 2 2 3 4 4 5 5 6 6 7 8 8 8 9 10 11 11 12 13 14 16 17 17 17 17 17 17 18 18 18 16 16
6 6 7 8 8 9 9 8 8 7 5 4 4 4 5 6 7 7 8 8 9 9 9 9 10 11 10 10 10 10 10 9 9 8 8 9 9 9 9 9 9 9 9 9 8 7 5 4 6 6 4 3 2 3 3 4 5 5 6 6 7 7 7 8 8 8 8 9 9 10 11 12 13 15 16 17 16 16 16 17 17 17 17 17 15
7 7 7 7 6 5 5 5 5 5 5 5 5 4 4 4 5 5 7 7 8 8 8 8 9 9 9 9 9 9 9 8 8 7 8 8 8 8 9 9 9 9 9 9 8 6 4 4 6 6 4 3 3 3 4 4 5 6 6 7 7 7 7 7 7 7 7 8 8 9 9 10 12 13 15 16 16 15 15 16 17 17 17 17 15
5 4 4 3 3 3 4 5 6 6 6 7 7 7 6 6 6 6 7 7 8 8 8 9 9 8 8 8 8 8 8 8 8 8 7 7 8 9 9 8 8 9 8 8 7 6 4 5 6 5 4 3 3 4 4 5 6 6 7 8 8 8 7 7 6 6 6 6 7 8 8 9 10 12 13 14 15 15 15 15 16 16 16 16 15
2 2 1 1 2 3 5 6 7 8 8 9 9 9 9 9 9 9 9 9 9 9 9 10 10 10 9 9 9 9 9 10 10 9 8 8 9 9 8 8 8 8 7 7 7 6 5 5 6 5 4 3 4 4 5 6 6 7 7 8 8 8 8 6 5 4 4 4 5 5 6 7 8 10 12 13 13 13 14 14 15 15 15 15 15
2 2 1 0 2 3 5 7 8 9 9 9 10 10 10 11 11 12 12 13 13 12 12 12 12 12 11 11 11 11 11 11 11 10 10 10 10 10 9 9 9 9 8 8 8 6 5 6 6 5 4 4 4 4 5 5 6 7 7 8 8 7 7 5 3 2 2 2 3 3 4 5 6 8 9 11 12 13 13 13 14 14 13 13 13
Wind_Direction
222 220 220 219 219 219 219 220 220 223 226 229 233 235 234 230 226 224 226 229 231 231 231 229 227 223 220 220 226 238 248 254 258 256 251 253 259 262 263 262 264 266 268 270 275 281 286 288 291 296 297 293 290 291 295 298 298 300 301 299 298 299 298 297 297 300 303 305 307 311 314 313 311 310 310 312 317 321 321 323 328 331 331 330 329
223 222 221 221 221 221 221 221 220 221 222 226 229 233 233 228 222 223 225 227 229 228 227 226 223 219 216 219 228 237 245 250 251 249 247 251 256 259 262 264 267 271 273 276 280 282 284 287 295 303 303 300 300 299 299 300 300 299 299 298 297 298 298 299 299 299 300 303 306 308 310 310 308 307 308 310 314 317 317 320 325 329 331 332 331
225 224 224 223 223 223 223 223 221 220 221 222 224 229 231 225 219 222 226 227 227 225 222 220 218 216 215 221 229 235 243 246 245 244 244 248 254 259 264 269 273 276 277 279 283 284 285 290 298 305 305 302 303 304 304 304 302 300 300 298 296 296 297 298 298 298 299 302 304 306 308 309 306 306 307 308 312 314 314 316 322 327 330 332 332
228 227 226 226 225 225 224 224 223 221 221 220 220 225 228 222 217 223 228 229 227 222 216 214 213 215 217 222 228 235 242 244 243 241 243 250 259 266 271 275 277 277 277 280 284 285 286 292 299 303 302 301 302 303 303 303 302 302 301 299 297 297 298 298 296 298 300 301 302 304 308 308 306 307 308 308 309 310 309 314 320 324 327 330 330
230 230 229 229 228 227 227 227 225 222 221 220 218 224 227 219 213 224 233 231 227 220 213 211 212 216 219 223 229 235 241 244 244 244 248 256 264 272 278 279 274 270 271 274 277 280 286 295 302 302 300 299 300 301 301 301 301 300 299 298 297 297 297 297 295 296 297 298 299 304 307 307 307 307 308 308 308 307 307 311 317 321 324 327 328
232 232 232 231 231 231 230 230 228 224 223 222 220 225 228 219 214 225 234 231 227 220 213 211 214 217 221 225 230 235 240 244 247 249 252 256 262 272 278 275 268 264 264 266 271 278 288 297 300 298 295 296 297 297 297 297 296 296 296 297 296 295 294 294 294 294 294 295 298 302 305 306 306 306 308 308 307 306 307 309 313 317 320 323 324
233 234 234 234 234 234 232 232 230 227 225 224 224 229 231 227 224 229 234 232 228 222 216 213 215 219 222 226 230 235 241 245 248 250 251 251 256 266 270 269 265 262 263 269 276 283 288 293 295 294 293 292 293 293 293 291 292 293 295 296 297 295 293 293 293 292 293 295 297 300 303 305 305 305 307 308 305 305 307 308 310 314 317 319 319
234 235 236 236 236 237 236 232 227 225 223 221 224 228 227 226 229 231 232 233 229 224 219 216 217 221 223 226 231 235 241 246 249 250 248 246 251 259 264 265 264 264 268 275 281 285 287 290 292 292 290 288 288 288 287 286 287 289 291 294 295 294 293 292 291 290 291 292 295 298 301 302 303 304 306 306 304 304 307 306 306 310 314 315 315
236 236 237 238 239 240 236 227 221 224 222 217 219 223 219 218 225 229 231 232 230 226 222 220 221 224 225 227 231 235 240 245 247 246 243 242 246 253 260 264 266 267 271 277 282 287 290 291 292 290 288 286 286 285 285 284 284 285 287 289 291 291 291 290 289 288 288 289 291 295 298 298 300 303 304 305 305 305 306 306 305 307 310 310 310
238 238 238 240 240 238 231 218 218 224 222 216 218 218 213 214 222 227 230 232 231 227 223 223 224 224 225 228 231 234 239 242 242 239 237 239 244 251 258 263 267 270 273 277 284 289 291 292 293 292 291 290 289 289 288 287 286 285 285 287 289 290 289 289 289 288 288 287 290 294 295 296 298 302 303 304 304 303 304 305 304 306 309 308 308
240 240 241 241 238 234 231 227 227 227 221 216 216 215 212 215 220 223 225 229 231 230 226 226 226 225 226 229 232 235 237 238 235 232 234 239 247 253 259 264 268 273 276 281 287 291 292 292 293 294 293 293 293 293 292 292 290 288 288 289 289 289 287 288 289 289 289 289 290 292 293 294 298 302 302 302 303 303 302 303 304 305 307 306 306
243 242 242 240 236 236 237 236 235 230 221 214 210 208 209 212 213 217 224 229 232 232 230 229 228 226 228 230 233 235 237 237 235 233 234 240 248 257 263 267 270 274 278 282 287 291 294 295 295 294 293 294 295 295 294 294 293 291 289 288 288 288 287 287 288 288 288 288 289 291 293 296 299 300 300 301 302 301 299 300 301 302 303 302 303
245 243 241 240 238 239 240 241 239 232 220 210 205 203 206 208 205 209 217 224 231 234 234 232 230 228 230 232 234 237 239 240 239 240 244 250 259 266 269 271 272 274 277 279 284 290 296 298 297 295 293 292 294 297 296 295 294 292 290 288 287 286 286 286 286 285 284 286 289 293 297 298 298 298 299 300 300 298 297 298 300 300 300 301 302
245 243 243 242 242 242 243 244 240 226 211 206 204 201 204 207 205 204 208 216 228 234 234 233 231 230 232 234 237 240 241 241 243 248 256 263 269 273 275 276 276 275 274 274 280 289 296 297 296 294 292 291 293 296 296 297 297 295 294 292 290 288 286 285 283 280 279 284 291 296 299 299 297 297 298 297 296 296 297 298 300 300 300 302 303
247 245 246 245 245 246 245 241 234 218 207 208 207 200 201 205 202 199 205 212 219 226 232 233 232 233 235 237 239 241 241 241 244 252 261 268 274 277 278 278 278 278 279 280 285 291 294 294 293 292 292 291 293 296 298 299 299 299 299 296 294 292 287 284 281 279 280 286 292 296 297 296 295 294 294 296 297 297 297 298 300 302 304 306 306
250 249 249 249 249 248 245 242 237 226 213 209 207 202 204 206 199 195 205 212 212 222 233 235 233 237 240 240 240 240 241 243 249 258 265 271 276 280 282 281 279 280 285 289 291 291 291 291 291 291 291 291 294 297 298 298 299 301 301 300 298 294 289 284 281 281 284 289 292 293 293 294 294 294 295 297 298 300 302 303 306 308 310 309 306
258 257 256 257 254 251 249 246 243 235 219 207 204 204 204 203 193 191 202 208 207 218 231 234 237 242 243 244 245 245 247 250 255 261 266 270 275 280 284 283 278 277 282 286 288 288 289 289 289 289 290 292 296 298 297 299 302 303 302 301 298 294 290 289 288 288 289 291 293 295 296 297 297 296 297 298 300 305 308 307 308 311 312 309 307
270 265 264 264 260 257 255 250 246 241 225 209 204 203 200 194 187 187 197 203 207 221 234 242 248 248 245 246 249 250 251 252 254 258 263 270 276 281 282 278 274 276 281 285 287 287 288 287 287 288 291 294 297 298 300 303 305 305 302 299 296 294 295 296 296 295 295 296 297 299 300 300 301 300 301 303 306 309 308 305 307 310 311 311 310
273 270 269 267 263 260 257 251 246 239 224 211 205 202 200 197 191 191 202 213 222 233 241 249 253 251 250 252 252 253 255 256 257 263 271 277 279 279 277 275 275 281 285 285 285 285 285 284 285 288 292 296 297 300 304 307 306 304 301 297 296 297 299 301 301 301 301 303 305 305 303 305 308 309 309 309 310 311 308 304 306 308 309 311 314
277 275 272 267 262 256 250 247 240 227 216 208 200 195 198 198 194 201 218 228 234 240 245 252 256 257 260 262 260 259 259 260 265 274 279 279 274 272 274 277 280 283 282 281 281 282 282 283 285 289 293 296 299 302 306 307 306 303 300 297 298 301 303 305 307 308 308 308 309 309 311 314 316 314 312 312 313 314 312 308 306 306 308 311 316
278 276 270 263 257 250 243 241 236 222 209 196 186 190 195 193 196 214 232 238 243 248 252 258 264 266 267 269 269 266 263 264 270 276 276 270 266 269 275 278 279 279 277 277 278 279 280 281 285 290 294 296 300 304 306 306 305 303 300 300 303 307 310 310 311 312 312 314 316 318 320 320 317 316 315 315 317 320 319 315 309 308 311 315 320
277 278 272 261 252 246 239 234 229 219 208 198 193 192 192 194 206 227 244 250 253 254 257 264 269 267 265 268 270 268 267 267 267 266 263 260 262 268 274 274 275 275 274 274 276 277 280 283 287 291 294 297 301 304 306 306 305 302 302 305 311 315 315 315 316 319 322 324 323 322 322 319 317 318 319 319 322 325 325 322 315 313 317 322 325
279 280 272 261 253 244 234 226 220 214 205 196 191 189 193 204 222 244 258 261 259 260 265 269 270 267 266 267 268 268 268 265 257 252 253 256 263 269 271 272 272 271 270 271 273 277 281 285 288 290 293 297 302 304 306 305 304 304 308 313 318 319 318 319 324 327 327 326 323 321 320 319 319 321 322 323 326 329 329 326 321 318 321 326 331
279 275 262 255 248 235 223 215 213 208 196 189 190 195 206 222 239 258 268 264 259 265 272 272 271 269 266 263 261 260 257 251 246 249 256 263 269 272 272 272 270 267 266 269 273 278 282 285 287 290 294 298 302 304 306 307 309 311 315 318 320 320 319 321 324 324 322 322 321 320 320 321 321 323 325 326 327 329 330 327 324 323 326 328 333
273 257 244 232 217 210 207 208 207 197 187 188 201 215 229 240 250 265 274 264 255 261 266 266 268 267 263 262 257 242 234 235 243 255 267 273 276 276 274 272 268 266 267 271 276 279 280 282 286 291 296 300 303 307 311 313 314 315 317 320 321 319 319 320 320 319 317 316 317 317 318 321 322 324 326 327 327 328 329 328 326 327 329 329 333
257 231 219 201 193 198 205 208 204 195 192 204 222 229 232 235 237 244 254 256 257 261 265 268 268 265 261 260 248 228 225 237 252 268 278 280 279 278 275 273 270 268 271 275 277 279 281 284 289 294 299 304 307 312 315 314 315 315 317 321 321 318 318 319 318 317 315 314 314 316 318 321 323 324 326 326 327 327 329 330 330 331 333 334 338
240 216 205 200 201 205 205 203 203 206 212 219 215 205 200 197 199 213 241 261 260 258 262 263 261 257 254 247 234 230 240 253 265 278 284 283 283 281 278 276 274 274 276 276 278 281 285 290 295 298 304 309 312 313 314 313 314 316 318 320 319 317 318 319 319 318 318 317 318 319 322 325 326 326 327 326 326 327 329 332 333 334 337 340 344
220 209 207 207 204 198 195 199 208 212 209 201 195 187 176 171 174 195 250 269 265 258 258 256 252 251 248 239 235 243 251 258 272 286 291 291 289 285 281 279 278 277 277 277 280 285 290 295 299 303 307 310 309 309 311 313 314 316 317 317 317 317 318 319 319 320 319 320 322 324 327 329 328 328 328 326 325 327 330 334 336 337 341 346 349
205 205 205 202 193 185 189 199 206 201 190 189 193 187 178 178 192 216 242 258 259 253 252 254 255 252 241 235 241 248 250 261 280 293 296 296 292 286 282 281 279 277 278 279 283 288 293 296 300 304 306 307 306 307 310 313 315 316 316 318 318 319 319 319 319 321 323 325 328 330 331 331 330 329 328 326 326 329 333 336 338 340 345 350 353
202 204 201 196 192 189 191 195 197 193 190 192 196 192 191 201 221 236 243 247 241 240 243 245 243 237 233 237 246 248 252 269 285 294 298 297 291 286 283 282 281 280 280 283 286 290 293 297 301 304 305 305 305 308 312 315 316 317 318 320 320 320 321 321 322 326 329 331 333 333 333 331 330 330 329 328 329 332 336 339 341 343 346 350 355
197 199 197 193 192 193 193 193 193 193 192 194 198 200 207 225 246 249 242 233 228 233 234 231 228 231 236 244 249 251 260 275 287 296 300 297 291 288 286 285 286 285 285 288 291 293 298 301 303 303 303 305 308 313 318 319 319 319 320 322 324 324 324 324 326 329 332 333 333 333 332 331 330 331 333 333 333 334 338 341 344 347 348 350 356
189 186 186 189 192 198 199 197 196 196 198 203 210 218 230 246 254 247 237 229 228 229 229 228 231 238 245 250 253 256 267 280 292 299 301 298 294 292 291 290 290 290 291 294 295 298 302 305 303 303 305 308 313 318 321 322 322 322 323 324 326 326 325 326 328 330 331 332 332 332 332 332 333 335 338 337 336 337 342 346 347 349 349 350 358
191 181 181 190 200 205 204 202 204 209 216 226 234 239 245 252 254 248 237 230 228 228 230 233 239 246 252 254 255 262 274 288 297 302 303 301 297 294 294 295 296 297 299 300 300 302 303 302 302 304 308 313 316 318 319 320 321 323 323 323 324 325 325 325 326 328 329 331 333 335 337 337 338 340 342 342 341 343 349 351 349 349 352 353 0
217 209 211 220 225 221 215 214 218 224 231 239 243 246 251 256 256 251 245 239 235 234 237 242 247 253 256 256 259 270 284 295 303 307 306 302 297 296 297 300 302 305 306 304 302 301 298 297 300 306 312 314 316 316 317 318 318 319 320 321 323 324 324 324 325 327 331 335 339 342 343 343 344 345 346 347 349 352 355 357 353 351 354 357 2
239 239 245 244 235 226 223 228 236 244 250 255 257 259 263 264 261 256 251 247 245 247 250 252 252 252 253 257 266 280 293 303 309 308 302 295 294 296 299 302 304 306 307 304 299 293 291 294 301 310 316 315 313 314 317 317 318 319 320 322 323 323 323 325 328 333 339 345 348 351 351 349 349 351 352 353 357 359 360 0 357 354 355 358 1
236 234 234 224 214 219 236 248 257 261 263 266 271 273 275 273 264 251 242 242 250 257 258 255 250 249 253 264 277 289 300 306 306 303 298 293 295 300 302 305 307 307 305 302 295 289 289 295 305 313 317 314 312 314 317 319 321 322 323 323 324 325 327 331 338 345 351 355 358 359 358 355 353 355 357 358 2 4 2 1 0 358 357 359 2
214 212 210 209 216 233 245 251 257 261 263 266 269 272 275 272 257 244 244 251 259 262 261 256 253 255 263 273 281 289 296 295 291 295 307 310 310 315 316 315 313 311 306 299 293 288 290 299 306 311 313 311 311 314 317 320 323 324 324 325 327 330 335 342 349 355 359 4 5 4 3 359 357 358 359 1 4 7 5 3 2 1 358 359 4
198 201 209 226 242 252 257 261 261 260 260 260 259 261 266 263 254 253 258 261 263 267 264 258 256 261 268 273 277 279 279 276 276 290 309 317 322 327 327 323 318 311 303 295 290 288 292 300 306 308 308 308 310 313 316 319 322 324 326 330 335 340 346 352 358 2 5 6 7 6 5 3 0 359 1 3 5 7 7 5 4 3 359 359 7
198 205 215 226 235 244 254 263 268 270 268 263 262 266 268 266 264 266 266 266 269 271 264 255 254 261 265 267 268 266 264 266 272 287 305 318 324 327 328 324 315 306 299 293 290 291 297 303 305 305 303 304 306 310 313 317 322 326 332 339 344 349 354 359 3 7 8 6 5 5 6 7 5 2 2 5 7 8 9 7 7 6 3 3 12
203 210 216 220 226 235 247 258 266 268 266 262 264 270 269 267 270 271 271 271 272 267 257 251 253 257 257 258 258 256 255 260 267 283 303 315 319 322 323 318 306 297 292 289 288 294 302 305 304 301 299 300 303 306 310 316 323 330 339 347 351 353 357 2 6 9 8 5 4 4 5 7 7 5 4 7 10 11 10 8 8 10 9 9 16
215 220 223 226 232 239 247 253 253 251 254 260 266 269 270 273 275 274 273 270 266 259 254 252 249 246 247 251 252 253 256 260 264 278 298 308 312 315 315 306 292 284 281 281 287 297 302 303 300 298 298 300 302 304 309 317 328 337 344 349 351 352 357 1 5 7 7 4 3 4 6 7 7 5 6 8 10 12 14 12 11 12 13 13 16
223 225 226 230 235 238 241 243 244 251 263 272 277 281 285 286 283 276 268 263 263 265 263 254 242 239 248 253 255 258 263 263 266 278 290 299 305 310 309 297 282 275 274 277 287 295 296 294 295 301 305 305 303 304 311 323 336 343 344 345 346 348 353 357 1 2 3 2 2 3 5 9 9 6 6 9 11 12 15 15 14 14 17 17 17
223 226 228 228 228 231 236 241 252 263 270 276 283 288 288 287 282 272 264 262 267 267 256 240 233 241 251 256 259 260 260 263 270 280 287 294 303 310 309 296 279 270 269 274 281 284 283 283 295 309 314 309 303 307 320 333 341 342 338 338 340 343 346 351 355 357 356 358 1 2 4 8 10 7 7 11 13 12 14 16 17 17 19 20 20
223 223 225 224 224 231 238 247 260 270 274 280 286 287 282 277 271 266 264 267 267 257 241 233 238 245 250 255 259 257 252 255 265 274 282 294 305 311 310 299 282 268 263 266 270 268 268 283 305 314 316 312 305 315 329 332 332 330 328 329 335 337 339 345 349 349 350 354 357 359 2 7 10 9 11 13 14 12 13 16 17 18 19 20 22
223 218 219 222 228 238 250 261 271 277 280 283 285 281 274 268 261 258 260 261 259 254 247 242 242 245 250 256 259 253 247 248 256 269 284 300 311 314 311 299 282 265 255 257 261 260 264 289 310 316 317 315 312 316 320 318 316 315 315 318 325 329 334 338 339 339 342 347 350 353 358 5 8 9 13 16 15 13 13 14 16 18 18 19 21
220 218 229 242 253 263 270 274 277 278 278 278 275 269 265 261 257 257 258 256 254 255 251 246 247 253 258 260 258 252 248 249 256 271 292 306 312 313 307 293 273 256 248 251 257 259 264 289 313 319 318 319 321 312 304 304 304 305 308 312 315 318 323 325 326 328 332 337 341 345 352 0 6 9 13 17 16 14 13 14 16 19 21 20 21
234 252 266 272 274 275 274 273 270 266 259 254 255 261 264 262 261 262 262 259 258 259 257 256 259 260 257 255 252 247 245 249 259 275 293 304 307 306 299 284 264 245 239 244 251 252 259 291 316 318 312 311 318 314 303 296 297 299 303 306 307 308 309 310 312 316 320 325 331 337 345 355 2 6 12 16 17 15 15 15 17 20 22 23 24
263 271 273 273 273 271 267 258 250 244 238 237 241 247 252 257 263 266 265 264 266 268 270 270 266 256 249 247 243 235 234 243 257 270 283 297 306 308 298 277 251 232 230 237 241 242 255 296 315 316 307 296 303 308 302 299 300 300 302 304 303 301 301 301 302 307 311 317 324 331 339 350 358 2 8 13 16 17 17 17 18 20 23 25 29
256 254 254 253 247 248 253 256 256 257 257 258 259 257 251 248 249 254 261 269 271 271 269 265 256 247 243 240 235 230 233 241 249 258 273 290 303 303 291 266 234 219 224 234 236 238 261 297 309 310 300 288 291 298 301 304 308 309 310 311 308 303 300 299 297 301 307 312 320 328 337 347 354 360 6 11 14 17 19 19 20 21 23 25 29
218 210 211 219 237 251 258 262 265 267 268 268 268 268 263 258 253 252 257 264 268 269 267 261 252 246 243 240 237 238 241 244 247 253 265 280 289 289 279 253 225 215 226 241 246 250 269 290 299 301 291 279 285 296 302 308 314 316 317 317 313 308 304 297 289 294 305 309 315 327 340 347 351 356 2 8 11 15 20 22 22 21 21 23 25
147 125 117 194 277 277 276 274 272 270 267 265 264 264 265 264 263 261 262 261 260 259 261 260 256 249 244 243 243 245 245 248 251 254 259 270 278 278 267 249 232 227 235 246 252 259 271 285 291 288 273 265 275 290 300 309 316 318 320 322 322 319 313 303 286 280 295 303 315 332 343 349 352 355 0 6 10 13 18 22 23 21 21 21 23